Regional Weather Roundup
Issued by NWS

Home | Current Version | Previous Version | Text Only | Print | Product List | Glossary On
Versions: 1 2 3 4 5 6 7 8 9 10 11 12 13 14 15 16 17 18 19 20 21 22 23 24 25 26 27
000
ASUS46 KPQR 280810
RWROR

OREGON REGIONAL WEATHER ROUNDUP
NATIONAL WEATHER SERVICE PORTLAND OR
100 AM PDT TUE MAR 28 2017

NOTE: "FAIR" INDICATES FEW OR NO CLOUDS BELOW 12,000 FEET WITH
NO SIGNIFICANT WEATHER AND/OR OBSTRUCTIONS TO VISIBILITY.

ORZ001>013-280900-
NORTHWEST OREGON


CITY           SKY/WX    TMP DP  RH WIND       PRES   REMARKS
ASTORIA        CLOUDY    47  43  86 S9        30.27F
NEWPORT        DRIZZLE   46  43  87 SW17G24   30.37
PORTLAND       LGT RAIN  47  42  83 S8        30.35R
VANCOUVER WA   LGT RAIN  47  45  93 S3        30.35R
SCAPPOOSE      CLOUDY    46  43  89 S8        30.33R
HILLSBORO      LGT RAIN  46  44  93 S8        30.34R
AURORA         CLOUDY    46  42  86 S10       30.36R
MCMINNVILLE    CLOUDY    47  41  80 S7        30.35S
SALEM          CLOUDY    47  41  80 S8        30.35S
CORVALLIS      CLOUDY    46  39  76 S3        30.36F
EUGENE         CLOUDY    45  41  86 S7        30.38R
$$

ORZ021-028-280900-
SOUTHWEST OREGON


CITY           SKY/WX    TMP DP  RH WIND       PRES   REMARKS
NORTH BEND     CLOUDY    46  45  93 S6        30.40F
BROOKINGS      MOCLDY    46  40  79 NW3       30.39S
ROSEBURG       MOCLDY    44  39  82 NE3       30.38R
SEXTON SUMMIT  PTCLDY    35  32  88 SW7       30.30F WCI  29
MEDFORD        MOCLDY    45  39  79 CALM      30.36S
$$

ORZ014>016-041-280900-
COLUMBIA GORGE


CITY           SKY/WX    TMP DP  RH WIND       PRES   REMARKS
TROUTDALE      LGT RAIN  48  43  82 CALM      30.35S
THE DALLES     CLOUDY    49  39  68 NW9       30.29R
$$

ORZ029>031-041-044-049-050-061>064-502-503-505>511-280900-
EASTERN OREGON


CITY           SKY/WX    TMP DP  RH WIND       PRES   REMARKS
REDMOND        MOCLDY    34  27  75 CALM      30.26R
BEND           MOCLDY    37  30  75 CALM      30.26R
PRINEVILLE     CLOUDY    36  32  87 CALM      30.26S
KLAMATH FALLS  PTCLDY    33  30  88 CALM      30.28F
LAKEVIEW       CLEAR     30  25  80 E7        30.28S WCI  23
HERMISTON      CLOUDY    45  38  76 SW13      30.26R
PENDLETON      CLOUDY    41  35  79 S6        30.27R
JOHN DAY       MOCLDY    36  30  80 CALM      30.25S
MEACHAM        MOCLDY    34  31  88 CALM      30.23S
LA GRANDE      CLOUDY    37  34  87 CALM      30.25S
BAKER CITY     MOCLDY    29  28  96 CALM      30.24R
BURNS          PTCLDY    30  24  78 W5        30.25R WCI  25
ROME             N/A     30  25  81 VRB5      30.22S WCI  25
ONTARIO        CLEAR     43  32  65 NW13      30.25R
$$




USA.gov is the U.S. government's official web portal to all federal, state and local government web resources and services.